Location: Unspecified
(0.0000°N, 0.0000°E)
Time: 16:31:15
(UTC+00:00)

OTV 5 (USA 277) - Visible Passes

Search period start: 19 June 2018 00:00
Search period end: 29 June 2018 00:00
Orbit: 313 x 320 km, 54.5° (Epoch: 18 June)

Date Brightness Start Highest point End Pass type
(mag) Time Alt. Az. Time Alt. Az. Time Alt. Az.
19 Jun ? 04:56:28 10° N 04:58:46 24° ENE 05:01:03 10° ESE visible
20 Jun ? 05:10:29 10° NW 05:13:08 50° WSW 05:15:47 10° SSE visible
21 Jun ? 05:27:22 11° WSW 05:27:31 11° WSW 05:28:15 10° SW visible
